Pagina principale
METAR-TAF:

METAR-TAF

Aeroporti :

Passo di Resia, Italia

latitudine: 46-50N, longitudine: 010-30E, altezza: 1800 m

Osservazione

Il bollettino è stato emesso 25 minuti fa, alle 06:55 UTC
Vento 8 kt da nord con raffiche fino a 20 kt
Temperature -1°C
Umidità 80%
Pressione 1006 hPa
Visibilità 10 km o più
Nuvoloso ad un'altezza di 2500 ft

METAR: LIVE 240655Z 01008G20KT 9999 BKN025 M01/M04 Q1006 RMK BKN VIS MIN 9999

Ora: 09:20 (07:20 UTC)


TAF: mancante

Osservazioni e previsioni meteorologiche di più di 4000 aeroporti (messaggi METAR e TAF).

Le stazioni disponibili sono rappresentate dai dischi gialli e rossi sulla carta.

Puntare il mouse per vedere il nome della stazione.

Clicca sopra per visualizzare le osservazioni e previsioni meteorologiche.

Per cambiare la mappa : fare clic sui pulsanti verdi con una croce nera per ingrandire, il pulsante verde con un trattino per diminuire, o sulla freccia verde per le mappe adiacenti.


METAR-TAF: